Time,TemperatureF,DewpointF,PressureIn,WindDirection,WindDirectionDegrees,WindSpeedMPH,WindSpeedGustMPH,Humidity,HourlyPrecipIn,Conditions,Clouds,dailyrainin,SoftwareType,DateUTC
2013-07-17 00:00:00,78.2,72.3,30.19,ESE,115,0.0,0.0,82,0.00,,,0.00,Wunderground v.1.15,2013-07-17 05:00:00,
2013-07-17 00:05:00,78.2,72.3,30.19,ESE,117,0.0,0.0,82,0.00,,,0.00,Wunderground v.1.15,2013-07-17 05:05:00,
2013-07-17 00:10:00,78.2,72.3,30.19,ESE,118,0.0,0.0,82,0.00,,,0.00,Wunderground v.1.15,2013-07-17 05:10:00,
2013-07-17 00:15:00,78.2,72.3,30.20,ESE,118,0.0,0.0,82,0.00,,,0.00,Wunderground v.1.15,2013-07-17 05:15:00,
2013-07-17 00:25:00,78.1,72.5,30.20,ESE,118,0.0,0.0,83,0.00,,,0.00,Wunderground v.1.15,2013-07-17 05:25:00,
2013-07-17 00:30:00,77.8,72.2,30.20,ESE,118,0.0,0.0,83,0.00,,,0.00,Wunderground v.1.15,2013-07-17 05:30:00,
2013-07-17 00:35:00,77.7,72.1,30.20,ESE,118,0.0,0.0,83,0.00,,,0.00,Wunderground v.1.15,2013-07-17 05:35:00,
2013-07-17 00:40:00,77.5,72.3,30.20,ESE,118,0.0,0.0,84,0.00,,,0.00,Wunderground v.1.15,2013-07-17 05:40:00,
2013-07-17 00:45:00,77.4,72.2,30.20,ESE,118,0.0,0.0,84,0.00,,,0.00,Wunderground v.1.15,2013-07-17 05:45:00,
2013-07-17 00:50:00,77.2,72.0,30.20,ESE,118,0.0,0.0,84,0.00,,,0.00,Wunderground v.1.15,2013-07-17 05:50:00,
2013-07-17 00:55:00,77.0,72.1,30.20,ESE,118,0.0,0.0,85,0.00,,,0.00,Wunderground v.1.15,2013-07-17 05:55:00,
2013-07-17 01:00:00,76.9,72.0,30.20,ESE,118,0.0,0.0,85,0.00,,,0.00,Wunderground v.1.15,2013-07-17 06:00:00,
2013-07-17 01:05:00,76.7,71.8,30.20,ESE,118,0.0,0.0,85,0.00,,,0.00,Wunderground v.1.15,2013-07-17 06:05:00,
2013-07-17 01:10:00,76.6,71.7,30.21,ESE,118,0.0,0.0,85,0.00,,,0.00,Wunderground v.1.15,2013-07-17 06:10:00,
2013-07-17 01:15:00,76.4,71.9,30.21,ESE,118,0.0,0.0,86,0.00,,,0.00,Wunderground v.1.15,2013-07-17 06:15:00,
2013-07-17 01:20:00,76.3,71.8,30.20,ESE,118,0.0,0.0,86,0.00,,,0.00,Wunderground v.1.15,2013-07-17 06:20:00,
2013-07-17 01:30:00,75.9,71.8,30.21,ESE,118,0.0,0.0,87,0.00,,,0.00,Wunderground v.1.15,2013-07-17 06:30:00,
2013-07-17 01:35:00,75.8,71.7,30.20,ESE,118,0.0,0.0,87,0.00,,,0.00,Wunderground v.1.15,2013-07-17 06:35:00,
2013-07-17 01:40:00,75.7,71.6,30.20,ESE,118,0.0,0.0,87,0.00,,,0.00,Wunderground v.1.15,2013-07-17 06:40:00,
2013-07-17 01:45:00,75.6,71.5,30.20,ESE,118,0.0,0.0,87,0.00,,,0.00,Wunderground v.1.15,2013-07-17 06:45:00,
2013-07-17 01:50:00,75.5,71.7,30.20,ESE,118,0.0,0.0,88,0.00,,,0.00,Wunderground v.1.15,2013-07-17 06:50:00,
2013-07-17 01:55:00,75.4,71.6,30.20,ESE,118,0.0,0.0,88,0.00,,,0.00,Wunderground v.1.15,2013-07-17 06:55:00,
2013-07-17 02:00:00,75.3,71.5,30.20,ESE,118,0.0,0.0,88,0.00,,,0.00,Wunderground v.1.15,2013-07-17 07:00:00,
2013-07-17 02:05:00,75.2,71.4,30.20,ESE,118,0.0,0.0,88,0.00,,,0.00,Wunderground v.1.15,2013-07-17 07:05:00,
2013-07-17 02:15:00,75.1,71.6,30.20,ESE,119,0.0,0.0,89,0.00,,,0.00,Wunderground v.1.15,2013-07-17 07:15:00,
2013-07-17 02:20:00,75.1,71.6,30.20,ESE,118,0.0,0.0,89,0.00,,,0.00,Wunderground v.1.15,2013-07-17 07:20:00,
2013-07-17 02:25:00,75.0,71.5,30.20,ESE,118,0.0,0.0,89,0.00,,,0.00,Wunderground v.1.15,2013-07-17 07:25:00,
2013-07-17 02:30:00,75.1,71.6,30.20,ESE,118,0.0,0.0,89,0.00,,,0.00,Wunderground v.1.15,2013-07-17 07:30:00,
2013-07-17 02:35:00,75.1,71.6,30.20,ESE,119,0.0,0.0,89,0.00,,,0.00,Wunderground v.1.15,2013-07-17 07:35:00,
2013-07-17 02:40:00,75.1,71.6,30.20,ESE,119,0.0,0.0,89,0.00,,,0.00,Wunderground v.1.15,2013-07-17 07:40:00,
2013-07-17 02:45:00,75.0,71.5,30.20,ESE,119,0.0,0.0,89,0.00,,,0.00,Wunderground v.1.15,2013-07-17 07:45:00,
2013-07-17 02:55:00,74.9,71.4,30.20,ESE,118,0.0,0.0,89,0.00,,,0.00,Wunderground v.1.15,2013-07-17 07:55:00,
2013-07-17 03:00:00,74.8,71.3,30.20,ESE,119,0.0,0.0,89,0.00,,,0.00,Wunderground v.1.15,2013-07-17 08:00:00,
2013-07-17 03:10:00,74.8,71.3,30.20,ESE,119,0.0,0.0,89,0.00,,,0.00,Wunderground v.1.15,2013-07-17 08:10:00,
2013-07-17 03:15:00,74.7,71.2,30.20,ESE,118,0.0,0.0,89,0.00,,,0.00,Wunderground v.1.15,2013-07-17 08:15:00,
2013-07-17 03:20:00,74.7,71.2,30.20,ESE,119,0.0,0.0,89,0.00,,,0.00,Wunderground v.1.15,2013-07-17 08:20:00,
2013-07-17 03:25:00,74.7,71.6,30.20,ESE,118,0.0,0.0,90,0.00,,,0.00,Wunderground v.1.15,2013-07-17 08:25:00,
2013-07-17 03:30:00,74.6,71.5,30.20,ESE,119,0.0,0.0,90,0.00,,,0.00,Wunderground v.1.15,2013-07-17 08:30:00,
2013-07-17 03:35:00,74.6,71.5,30.20,ESE,118,0.0,0.0,90,0.00,,,0.00,Wunderground v.1.15,2013-07-17 08:35:00,
2013-07-17 03:40:00,74.5,71.4,30.20,ESE,119,0.0,0.0,90,0.00,,,0.00,Wunderground v.1.15,2013-07-17 08:40:00,
2013-07-17 03:50:00,74.3,71.2,30.20,ESE,118,0.0,0.0,90,0.00,,,0.00,Wunderground v.1.15,2013-07-17 08:50:00,
2013-07-17 04:00:00,74.2,71.1,30.21,ESE,118,0.0,0.0,90,0.00,,,0.00,Wunderground v.1.15,2013-07-17 09:00:00,
2013-07-17 04:10:00,74.0,70.9,30.21,ESE,118,0.0,0.0,90,0.00,,,0.00,Wunderground v.1.15,2013-07-17 09:10:00,
2013-07-17 04:15:00,73.9,71.1,30.21,ESE,119,0.0,0.0,91,0.00,,,0.00,Wunderground v.1.15,2013-07-17 09:15:00,
2013-07-17 04:20:00,73.8,71.0,30.20,ESE,119,0.0,0.0,91,0.00,,,0.00,Wunderground v.1.15,2013-07-17 09:20:00,
2013-07-17 04:25:00,73.7,70.9,30.21,ESE,119,0.0,0.0,91,0.00,,,0.00,Wunderground v.1.15,2013-07-17 09:25:00,
2013-07-17 04:30:00,73.6,70.8,30.21,ESE,119,0.0,0.0,91,0.00,,,0.00,Wunderground v.1.15,2013-07-17 09:30:00,
2013-07-17 04:35:00,73.4,70.6,30.21,ESE,119,0.0,0.0,91,0.00,,,0.00,Wunderground v.1.15,2013-07-17 09:35:00,
2013-07-17 04:45:00,73.2,70.7,30.21,ESE,119,0.0,0.0,92,0.00,,,0.00,Wunderground v.1.15,2013-07-17 09:45:00,
2013-07-17 04:50:00,73.2,70.7,30.21,ESE,119,0.0,0.0,92,0.00,,,0.00,Wunderground v.1.15,2013-07-17 09:50:00,
2013-07-17 04:55:00,73.1,70.6,30.21,ESE,119,0.0,0.0,92,0.00,,,0.00,Wunderground v.1.15,2013-07-17 09:55:00,
2013-07-17 05:00:00,73.0,70.5,30.21,ESE,119,0.0,0.0,92,0.00,,,0.00,Wunderground v.1.15,2013-07-17 10:00:00,
2013-07-17 05:05:00,73.0,70.5,30.21,ESE,118,0.0,0.0,92,0.00,,,0.00,Wunderground v.1.15,2013-07-17 10:05:00,
2013-07-17 05:10:00,73.0,70.5,30.21,ESE,119,0.0,0.0,92,0.00,,,0.00,Wunderground v.1.15,2013-07-17 10:10:00,
2013-07-17 05:15:00,72.9,70.4,30.21,ESE,119,0.0,0.0,92,0.00,,,0.00,Wunderground v.1.15,2013-07-17 10:15:00,
2013-07-17 05:20:00,72.8,70.3,30.21,ESE,119,0.0,0.0,92,0.00,,,0.00,Wunderground v.1.15,2013-07-17 10:20:00,
2013-07-17 05:25:00,72.7,70.6,30.21,ESE,118,0.0,0.0,93,0.00,,,0.00,Wunderground v.1.15,2013-07-17 10:25:00,
2013-07-17 05:30:00,72.6,70.5,30.21,ESE,119,0.0,0.0,93,0.00,,,0.00,Wunderground v.1.15,2013-07-17 10:30:00,
2013-07-17 05:40:00,72.5,70.4,30.21,ESE,118,0.0,0.0,93,0.00,,,0.00,Wunderground v.1.15,2013-07-17 10:40:00,
2013-07-17 05:45:00,72.4,70.3,30.22,ESE,117,0.0,0.0,93,0.00,,,0.00,Wunderground v.1.15,2013-07-17 10:45:00,
2013-07-17 05:50:00,72.3,70.2,30.22,ESE,117,0.0,0.0,93,0.00,,,0.00,Wunderground v.1.15,2013-07-17 10:50:00,
2013-07-17 05:55:00,72.3,70.2,30.21,ESE,117,0.0,0.0,93,0.00,,,0.00,Wunderground v.1.15,2013-07-17 10:55:00,
2013-07-17 06:00:00,72.3,70.2,30.21,ESE,117,0.0,0.0,93,0.00,,,0.00,Wunderground v.1.15,2013-07-17 11:00:00,
2013-07-17 06:05:00,72.3,70.2,30.22,ESE,117,0.0,0.0,93,0.00,,,0.00,Wunderground v.1.15,2013-07-17 11:05:00,
2013-07-17 06:10:00,72.3,70.5,30.22,ESE,117,0.0,0.0,94,0.00,,,0.00,Wunderground v.1.15,2013-07-17 11:10:00,
2013-07-17 06:20:00,72.3,70.5,30.22,ESE,117,0.0,0.0,94,0.00,,,0.00,Wunderground v.1.15,2013-07-17 11:20:00,
2013-07-17 06:25:00,72.4,70.6,30.22,ESE,117,0.0,0.0,94,0.00,,,0.00,Wunderground v.1.15,2013-07-17 11:25:00,
2013-07-17 06:30:00,72.5,70.7,30.22,ESE,117,0.0,0.0,94,0.00,,,0.00,Wunderground v.1.15,2013-07-17 11:30:00,
2013-07-17 06:35:00,72.6,70.8,30.22,ESE,117,0.0,0.0,94,0.00,,,0.00,Wunderground v.1.15,2013-07-17 11:35:00,
2013-07-17 06:40:00,72.7,70.9,30.22,ESE,117,0.0,0.0,94,0.00,,,0.00,Wunderground v.1.15,2013-07-17 11:40:00,
2013-07-17 06:45:00,72.9,70.8,30.22,ESE,117,0.0,0.0,93,0.00,,,0.00,Wunderground v.1.15,2013-07-17 11:45:00,
2013-07-17 06:50:00,73.2,71.4,30.22,ESE,117,0.0,0.0,94,0.00,,,0.00,Wunderground v.1.15,2013-07-17 11:50:00,
2013-07-17 06:55:00,73.4,71.3,30.22,ESE,117,0.0,0.0,93,0.00,,,0.00,Wunderground v.1.15,2013-07-17 11:55:00,
2013-07-17 07:00:00,73.6,71.4,30.22,ESE,117,0.0,0.0,93,0.00,,,0.00,Wunderground v.1.15,2013-07-17 12:00:00,
2013-07-17 07:10:00,74.2,71.7,30.23,ESE,117,0.0,0.0,92,0.00,,,0.00,Wunderground v.1.15,2013-07-17 12:10:00,
2013-07-17 07:15:00,74.6,71.8,30.23,ESE,117,0.0,0.0,91,0.00,,,0.00,Wunderground v.1.15,2013-07-17 12:15:00,
2013-07-17 07:20:00,75.1,72.0,30.23,ESE,117,0.0,0.0,90,0.00,,,0.00,Wunderground v.1.15,2013-07-17 12:20:00,
2013-07-17 07:25:00,75.6,71.8,30.23,ESE,117,0.0,0.0,88,0.00,,,0.00,Wunderground v.1.15,2013-07-17 12:25:00,
2013-07-17 07:30:00,76.1,71.9,30.23,ESE,117,0.0,0.0,87,0.00,,,0.00,Wunderground v.1.15,2013-07-17 12:30:00,
2013-07-17 07:35:00,76.7,72.2,30.23,ESE,117,0.0,0.0,86,0.00,,,0.00,Wunderground v.1.15,2013-07-17 12:35:00,
2013-07-17 07:45:00,77.6,72.0,30.23,SE,126,0.0,0.0,83,0.00,,,0.00,Wunderground v.1.15,2013-07-17 12:45:00,
2013-07-17 07:50:00,78.0,72.4,30.24,SSE,165,0.0,0.0,83,0.00,,,0.00,Wunderground v.1.15,2013-07-17 12:50:00,
2013-07-17 07:55:00,78.2,71.9,30.23,SSE,165,0.0,0.0,81,0.00,,,0.00,Wunderground v.1.15,2013-07-17 12:55:00,
2013-07-17 08:00:00,78.6,72.3,30.23,SSE,166,0.0,0.0,81,0.00,,,0.00,Wunderground v.1.15,2013-07-17 13:00:00,
2013-07-17 08:05:00,78.8,72.5,30.23,South,179,0.0,0.0,81,0.00,,,0.00,Wunderground v.1.15,2013-07-17 13:05:00,
2013-07-17 08:10:00,78.9,72.2,30.24,SSW,198,0.0,0.0,80,0.00,,,0.00,Wunderground v.1.15,2013-07-17 13:10:00,
2013-07-17 08:15:00,79.1,72.4,30.24,South,191,0.0,0.0,80,0.00,,,0.00,Wunderground v.1.15,2013-07-17 13:15:00,
2013-07-17 08:20:00,79.3,72.6,30.24,SSW,194,0.0,0.0,80,0.00,,,0.00,Wunderground v.1.15,2013-07-17 13:20:00,
2013-07-17 08:25:00,79.5,72.8,30.24,NNW,340,0.0,0.0,80,0.00,,,0.00,Wunderground v.1.15,2013-07-17 13:25:00,
2013-07-17 08:30:00,79.7,73.3,30.24,SW,232,0.0,0.0,81,0.00,,,0.00,Wunderground v.1.15,2013-07-17 13:30:00,
2013-07-17 08:40:00,80.4,72.9,30.24,SSW,207,0.0,0.0,78,0.00,,,0.00,Wunderground v.1.15,2013-07-17 13:40:00,
2013-07-17 08:45:00,80.4,72.9,30.24,SSW,192,0.0,0.0,78,0.00,,,0.00,Wunderground v.1.15,2013-07-17 13:45:00,
2013-07-17 08:50:00,80.6,72.7,30.24,SSW,200,0.0,0.0,77,0.00,,,0.00,Wunderground v.1.15,2013-07-17 13:50:00,
2013-07-17 09:00:00,80.6,72.7,30.24,SSW,206,0.0,0.0,77,0.00,,,0.00,Wunderground v.1.15,2013-07-17 14:00:00,
2013-07-17 09:05:00,81.1,73.2,30.24,SSW,206,0.0,0.0,77,0.00,,,0.00,Wunderground v.1.15,2013-07-17 14:05:00,
2013-07-17 09:10:00,81.7,73.4,30.24,SSW,203,0.0,0.0,76,0.00,,,0.00,Wunderground v.1.15,2013-07-17 14:10:00,
2013-07-17 09:15:00,82.0,73.3,30.24,SSW,206,0.0,0.0,75,0.00,,,0.00,Wunderground v.1.15,2013-07-17 14:15:00,
2013-07-17 09:20:00,82.6,73.9,30.24,SW,217,0.0,0.0,75,0.00,,,0.00,Wunderground v.1.15,2013-07-17 14:20:00,
2013-07-17 09:25:00,83.0,73.9,30.24,SW,227,0.0,0.0,74,0.00,,,0.00,Wunderground v.1.15,2013-07-17 14:25:00,
2013-07-17 09:30:00,83.4,73.4,30.24,South,186,0.0,0.0,72,0.00,,,0.00,Wunderground v.1.15,2013-07-17 14:30:00,
2013-07-17 09:40:00,83.8,73.8,30.24,SW,217,0.0,0.0,72,0.00,,,0.00,Wunderground v.1.15,2013-07-17 14:40:00,
2013-07-17 09:45:00,84.4,74.0,30.24,SW,236,0.0,0.0,71,0.00,,,0.00,Wunderground v.1.15,2013-07-17 14:45:00,
2013-07-17 09:50:00,85.1,74.6,30.24,SSW,207,0.0,0.0,71,0.00,,,0.00,Wunderground v.1.15,2013-07-17 14:50:00,
2013-07-17 09:55:00,85.6,74.3,30.24,SSW,203,0.0,0.0,69,0.00,,,0.00,Wunderground v.1.15,2013-07-17 14:55:00,
2013-07-17 10:00:00,85.8,74.4,30.24,SSW,200,0.0,0.0,69,0.00,,,0.00,Wunderground v.1.15,2013-07-17 15:00:00,
2013-07-17 10:05:00,86.2,74.0,30.24,WSW,257,0.0,0.0,67,0.00,,,0.00,Wunderground v.1.15,2013-07-17 15:05:00,
2013-07-17 10:10:00,86.2,74.0,30.24,SW,215,0.0,0.0,67,0.00,,,0.00,Wunderground v.1.15,2013-07-17 15:10:00,
2013-07-17 10:15:00,86.8,74.5,30.24,WSW,238,0.0,0.0,67,0.00,,,0.00,Wunderground v.1.15,2013-07-17 15:15:00,
2013-07-17 10:20:00,87.3,74.5,30.24,NNE,18,0.0,0.0,66,0.00,,,0.00,Wunderground v.1.15,2013-07-17 15:20:00,
2013-07-17 10:25:00,87.7,74.5,30.23,NNE,18,0.0,0.0,65,0.00,,,0.00,Wunderground v.1.15,2013-07-17 15:25:00,
2013-07-17 10:30:00,88.0,73.8,30.23,SW,232,0.0,0.0,63,0.00,,,0.00,Wunderground v.1.15,2013-07-17 15:30:00,
2013-07-17 10:35:00,88.7,75.0,30.23,South,177,0.0,0.0,64,0.00,,,0.00,Wunderground v.1.15,2013-07-17 15:35:00,
2013-07-17 10:40:00,88.8,74.6,30.23,SSW,197,0.0,5.0,63,0.00,,,0.00,Wunderground v.1.15,2013-07-17 15:40:00,
2013-07-17 10:45:00,87.8,75.0,30.23,South,169,1.0,5.0,66,0.00,,,0.00,Wunderground v.1.15,2013-07-17 15:45:00,
2013-07-17 10:50:00,87.8,74.6,30.23,SSW,202,1.0,5.0,65,0.00,,,0.00,Wunderground v.1.15,2013-07-17 15:50:00,
2013-07-17 10:55:00,87.6,74.4,30.23,South,180,0.0,5.0,65,0.00,,,0.00,Wunderground v.1.15,2013-07-17 15:55:00,
2013-07-17 11:00:00,87.7,74.0,30.23,South,180,0.0,0.0,64,0.00,,,0.00,Wunderground v.1.15,2013-07-17 16:00:00,
2013-07-17 11:05:00,88.0,74.3,30.23,SSE,163,0.0,0.0,64,0.00,,,0.00,Wunderground v.1.15,2013-07-17 16:05:00,
2013-07-17 11:15:00,87.8,71.7,30.23,WSW,246,1.0,1.0,59,0.00,,,0.00,Wunderground v.1.15,2013-07-17 16:15:00,
2013-07-17 11:20:00,88.7,72.5,30.23,WSW,246,1.0,1.0,59,0.00,,,0.00,Wunderground v.1.15,2013-07-17 16:20:00,
2013-07-17 11:25:00,89.2,73.0,30.23,South,190,0.0,1.0,59,0.00,,,0.00,Wunderground v.1.15,2013-07-17 16:25:00,
2013-07-17 11:30:00,89.1,72.4,30.23,South,188,0.0,0.0,58,0.00,,,0.00,Wunderground v.1.15,2013-07-17 16:30:00,
2013-07-17 11:40:00,89.4,72.7,30.23,SE,146,0.0,0.0,58,0.00,,,0.00,Wunderground v.1.15,2013-07-17 16:40:00,
2013-07-17 11:45:00,89.5,73.3,30.23,ESE,110,0.0,0.0,59,0.00,,,0.00,Wunderground v.1.15,2013-07-17 16:45:00,
2013-07-17 11:50:00,90.0,72.2,30.23,SSW,212,0.0,0.0,56,0.00,,,0.00,Wunderground v.1.15,2013-07-17 16:50:00,
2013-07-17 11:55:00,90.6,72.8,30.23,SW,233,0.0,0.0,56,0.00,,,0.00,Wunderground v.1.15,2013-07-17 16:55:00,
2013-07-17 12:00:00,91.1,72.1,30.23,SSW,200,0.0,1.0,54,0.00,,,0.00,Wunderground v.1.15,2013-07-17 17:00:00,
2013-07-17 12:05:00,90.4,72.0,30.23,South,191,0.0,1.0,55,0.00,,,0.00,Wunderground v.1.15,2013-07-17 17:05:00,
2013-07-17 12:10:00,90.5,73.2,30.23,WSW,254,0.0,0.0,57,0.00,,,0.00,Wunderground v.1.15,2013-07-17 17:10:00,
2013-07-17 12:15:00,91.2,73.3,30.23,SSW,192,0.0,0.0,56,0.00,,,0.00,Wunderground v.1.15,2013-07-17 17:15:00,
2013-07-17 12:25:00,90.9,72.0,30.22,SSW,200,1.0,5.0,54,0.00,,,0.00,Wunderground v.1.15,2013-07-17 17:25:00,
2013-07-17 12:30:00,90.6,72.2,30.22,SW,236,1.0,1.0,55,0.00,,,0.00,Wunderground v.1.15,2013-07-17 17:30:00,
2013-07-17 12:40:00,90.6,71.1,30.22,SW,221,1.0,1.0,53,0.00,,,0.00,Wunderground v.1.15,2013-07-17 17:40:00,
2013-07-17 12:45:00,91.2,73.3,30.22,SSW,212,0.0,2.0,56,0.00,,,0.00,Wunderground v.1.15,2013-07-17 17:45:00,
2013-07-17 12:50:00,91.4,71.9,30.21,ESE,102,1.0,1.0,53,0.00,,,0.00,Wunderground v.1.15,2013-07-17 17:50:00,
2013-07-17 12:55:00,91.0,72.0,30.22,SSW,199,1.0,5.0,54,0.00,,,0.00,Wunderground v.1.15,2013-07-17 17:55:00,
2013-07-17 13:00:00,90.5,72.7,30.21,East,100,1.0,1.0,56,0.00,,,0.00,Wunderground v.1.15,2013-07-17 18:00:00,
2013-07-17 13:05:00,90.8,72.9,30.21,East,83,1.0,1.0,56,0.00,,,0.00,Wunderground v.1.15,2013-07-17 18:05:00,
2013-07-17 13:10:00,90.8,71.3,30.21,ESE,122,0.0,0.0,53,0.00,,,0.00,Wunderground v.1.15,2013-07-17 18:10:00,
2013-07-17 13:15:00,91.3,72.9,30.21,East,90,0.0,7.0,55,0.00,,,0.00,Wunderground v.1.15,2013-07-17 18:15:00,
2013-07-17 13:25:00,91.3,72.9,30.21,East,89,1.0,1.0,55,0.00,,,0.00,Wunderground v.1.15,2013-07-17 18:25:00,
2013-07-17 13:30:00,91.5,70.8,30.21,SW,218,1.0,1.0,51,0.00,,,0.00,Wunderground v.1.15,2013-07-17 18:30:00,
2013-07-17 13:40:00,91.7,71.6,30.20,SSW,209,1.0,1.0,52,0.00,,,0.00,Wunderground v.1.15,2013-07-17 18:40:00,
2013-07-17 13:45:00,91.4,72.4,30.20,SE,136,1.0,1.0,54,0.00,,,0.00,Wunderground v.1.15,2013-07-17 18:45:00,
2013-07-17 13:50:00,91.4,71.3,30.20,SSE,152,1.0,3.0,52,0.00,,,0.00,Wunderground v.1.15,2013-07-17 18:50:00,
2013-07-17 13:55:00,91.3,70.6,30.20,SSW,202,1.0,4.0,51,0.00,,,0.00,Wunderground v.1.15,2013-07-17 18:55:00,
2013-07-17 14:00:00,91.3,71.2,30.20,SE,134,2.0,2.0,52,0.00,,,0.00,Wunderground v.1.15,2013-07-17 19:00:00,
2013-07-17 14:05:00,91.3,70.1,30.20,South,190,2.0,2.0,50,0.00,,,0.00,Wunderground v.1.15,2013-07-17 19:05:00,
2013-07-17 14:10:00,91.5,70.2,30.20,SSW,213,1.0,1.0,50,0.00,,,0.00,Wunderground v.1.15,2013-07-17 19:10:00,
2013-07-17 14:20:00,91.8,71.1,30.19,SSW,193,1.0,3.0,51,0.00,,,0.00,Wunderground v.1.15,2013-07-17 19:20:00,
2013-07-17 14:25:00,91.9,71.2,30.19,SW,214,1.0,3.0,51,0.00,,,0.00,Wunderground v.1.15,2013-07-17 19:25:00,
2013-07-17 14:30:00,92.4,72.2,30.19,SE,133,1.0,1.0,52,0.00,,,0.00,Wunderground v.1.15,2013-07-17 19:30:00,
2013-07-17 14:35:00,92.5,70.6,30.18,WSW,240,0.0,1.0,49,0.00,,,0.00,Wunderground v.1.15,2013-07-17 19:35:00,
2013-07-17 14:40:00,92.0,70.7,30.18,ESE,123,2.0,2.0,50,0.00,,,0.00,Wunderground v.1.15,2013-07-17 19:40:00,
2013-07-17 14:50:00,92.2,71.5,30.18,WNW,300,1.0,1.0,51,0.00,,,0.00,Wunderground v.1.15,2013-07-17 19:50:00,
2013-07-17 14:55:00,92.6,71.8,30.18,South,190,1.0,3.0,51,0.00,,,0.00,Wunderground v.1.15,2013-07-17 19:55:00,
2013-07-17 15:00:00,92.4,70.5,30.18,SSW,194,1.0,1.0,49,0.00,,,0.00,Wunderground v.1.15,2013-07-17 20:00:00,
2013-07-17 15:05:00,92.6,70.6,30.17,ESE,123,2.0,2.0,49,0.00,,,0.00,Wunderground v.1.15,2013-07-17 20:05:00,
2013-07-17 15:10:00,92.6,70.6,30.17,SE,138,1.0,1.0,49,0.00,,,0.00,Wunderground v.1.15,2013-07-17 20:10:00,
2013-07-17 15:15:00,92.2,70.3,30.17,SSW,200,1.0,1.0,49,0.00,,,0.00,Wunderground v.1.15,2013-07-17 20:15:00,
2013-07-17 15:25:00,92.2,70.3,30.17,SSW,204,1.0,1.0,49,0.00,,,0.00,Wunderground v.1.15,2013-07-17 20:25:00,
2013-07-17 15:30:00,92.8,70.8,30.17,SSW,194,1.0,1.0,49,0.00,,,0.00,Wunderground v.1.15,2013-07-17 20:30:00,
2013-07-17 15:35:00,92.6,69.4,30.17,ESE,114,1.0,1.0,47,0.00,,,0.00,Wunderground v.1.15,2013-07-17 20:35:00,
2013-07-17 15:40:00,92.2,69.1,30.17,SSW,203,1.0,1.0,47,0.00,,,0.00,Wunderground v.1.15,2013-07-17 20:40:00,
2013-07-17 15:45:00,92.5,69.3,30.17,SSW,203,1.0,1.0,47,0.00,,,0.00,Wunderground v.1.15,2013-07-17 20:45:00,
2013-07-17 15:50:00,92.8,69.0,30.16,SSE,147,1.0,1.0,46,0.00,,,0.00,Wunderground v.1.15,2013-07-17 20:50:00,
2013-07-17 16:00:00,92.6,70.6,30.16,SW,229,2.0,2.0,49,0.00,,,0.00,Wunderground v.1.15,2013-07-17 21:00:00,
2013-07-17 16:05:00,92.6,69.4,30.16,SSW,207,2.0,2.0,47,0.00,,,0.00,Wunderground v.1.15,2013-07-17 21:05:00,
2013-07-17 16:10:00,92.8,69.6,30.16,SSW,199,2.0,2.0,47,0.00,,,0.00,Wunderground v.1.15,2013-07-17 21:10:00,
2013-07-17 16:15:00,92.9,68.4,30.15,South,169,2.0,2.0,45,0.00,,,0.00,Wunderground v.1.15,2013-07-17 21:15:00,
2013-07-17 16:20:00,92.7,68.9,30.15,West,272,2.0,2.0,46,0.00,,,0.00,Wunderground v.1.15,2013-07-17 21:20:00,
2013-07-17 16:25:00,92.9,69.7,30.15,South,188,2.0,4.0,47,0.00,,,0.00,Wunderground v.1.15,2013-07-17 21:25:00,
2013-07-17 16:30:00,92.7,69.5,30.15,SE,136,1.0,1.0,47,0.00,,,0.00,Wunderground v.1.15,2013-07-17 21:30:00,
2013-07-17 16:35:00,92.7,68.9,30.15,SW,236,2.0,2.0,46,0.00,,,0.00,Wunderground v.1.15,2013-07-17 21:35:00,
2013-07-17 16:40:00,92.5,68.7,30.15,South,187,3.0,3.0,46,0.00,,,0.00,Wunderground v.1.15,2013-07-17 21:40:00,
2013-07-17 16:50:00,92.5,69.3,30.14,South,189,1.0,2.0,47,0.00,,,0.00,Wunderground v.1.15,2013-07-17 21:50:00,
2013-07-17 16:55:00,92.7,70.1,30.14,SW,218,1.0,2.0,48,0.00,,,0.00,Wunderground v.1.15,2013-07-17 21:55:00,
2013-07-17 17:00:00,92.6,69.4,30.14,SW,234,2.0,5.0,47,0.00,,,0.00,Wunderground v.1.15,2013-07-17 22:00:00,
2013-07-17 17:05:00,92.5,70.0,30.14,SSE,158,2.0,5.0,48,0.00,,,0.00,Wunderground v.1.15,2013-07-17 22:05:00,
2013-07-17 17:10:00,92.5,69.3,30.14,South,186,2.0,4.0,47,0.00,,,0.00,Wunderground v.1.15,2013-07-17 22:10:00,
2013-07-17 17:15:00,92.5,70.0,30.14,SE,129,1.0,4.0,48,0.00,,,0.00,Wunderground v.1.15,2013-07-17 22:15:00,
2013-07-17 17:20:00,92.4,69.9,30.13,SE,141,1.0,1.0,48,0.00,,,0.00,Wunderground v.1.15,2013-07-17 22:20:00,
2013-07-17 17:25:00,92.2,69.7,30.13,SSE,157,1.0,1.0,48,0.00,,,0.00,Wunderground v.1.15,2013-07-17 22:25:00,
2013-07-17 17:30:00,92.1,70.2,30.13,SSE,166,1.0,1.0,49,0.00,,,0.00,Wunderground v.1.15,2013-07-17 22:30:00,
2013-07-17 17:35:00,92.2,70.9,30.13,SE,130,0.0,1.0,50,0.00,,,0.00,Wunderground v.1.15,2013-07-17 22:35:00,
2013-07-17 17:40:00,92.3,70.4,30.13,SSW,207,1.0,1.0,49,0.00,,,0.00,Wunderground v.1.15,2013-07-17 22:40:00,
2013-07-17 17:50:00,92.3,70.4,30.13,SW,217,1.0,1.0,49,0.00,,,0.00,Wunderground v.1.15,2013-07-17 22:50:00,
2013-07-17 17:55:00,92.1,71.4,30.13,ESE,107,1.0,1.0,51,0.00,,,0.00,Wunderground v.1.15,2013-07-17 22:55:00,
2013-07-17 18:00:00,91.8,71.1,30.13,SSE,158,0.0,0.0,51,0.00,,,0.00,Wunderground v.1.15,2013-07-17 23:00:00,
2013-07-17 18:05:00,91.7,70.4,30.13,SW,217,1.0,1.0,50,0.00,,,0.00,Wunderground v.1.15,2013-07-17 23:05:00,
2013-07-17 18:10:00,91.8,71.1,30.13,SSW,207,1.0,1.0,51,0.00,,,0.00,Wunderground v.1.15,2013-07-17 23:10:00,
2013-07-17 18:15:00,92.1,71.9,30.13,South,188,1.0,1.0,52,0.00,,,0.00,Wunderground v.1.15,2013-07-17 23:15:00,
2013-07-17 18:20:00,91.9,71.2,30.13,South,177,1.0,1.0,51,0.00,,,0.00,Wunderground v.1.15,2013-07-17 23:20:00,
2013-07-17 18:25:00,91.8,71.7,30.12,SSW,195,0.0,1.0,52,0.00,,,0.00,Wunderground v.1.15,2013-07-17 23:25:00,
2013-07-17 18:35:00,91.4,70.7,30.12,South,188,1.0,4.0,51,0.00,,,0.00,Wunderground v.1.15,2013-07-17 23:35:00,
2013-07-17 18:40:00,91.2,71.1,30.12,SSE,160,2.0,3.0,52,0.00,,,0.00,Wunderground v.1.15,2013-07-17 23:40:00,
2013-07-17 18:45:00,90.8,71.9,30.12,SSW,200,2.0,3.0,54,0.00,,,0.00,Wunderground v.1.15,2013-07-17 23:45:00,
2013-07-17 18:50:00,90.5,71.6,30.12,East,82,1.0,1.0,54,0.00,,,0.00,Wunderground v.1.15,2013-07-17 23:50:00,
2013-07-17 18:55:00,90.3,71.9,30.12,South,181,1.0,1.0,55,0.00,,,0.00,Wunderground v.1.15,2013-07-17 23:55:00,
2013-07-17 19:00:00,90.1,72.3,30.12,South,186,1.0,1.0,56,0.00,,,0.00,Wunderground v.1.15,2013-07-18 00:00:00,
2013-07-17 19:05:00,89.9,72.6,30.12,SSW,207,0.0,1.0,57,0.00,,,0.00,Wunderground v.1.15,2013-07-18 00:05:00,
2013-07-17 19:15:00,89.6,72.9,30.11,SSW,210,1.0,1.0,58,0.00,,,0.00,Wunderground v.1.15,2013-07-18 00:15:00,
2013-07-17 19:20:00,89.6,72.9,30.11,South,172,0.0,0.0,58,0.00,,,0.00,Wunderground v.1.15,2013-07-18 00:20:00,
2013-07-17 19:25:00,89.4,72.7,30.11,South,179,0.0,0.0,58,0.00,,,0.00,Wunderground v.1.15,2013-07-18 00:25:00,
2013-07-17 19:35:00,89.2,73.0,30.11,South,180,0.0,0.0,59,0.00,,,0.00,Wunderground v.1.15,2013-07-18 00:35:00,
2013-07-17 19:40:00,89.0,72.8,30.11,South,179,0.0,0.0,59,0.00,,,0.00,Wunderground v.1.15,2013-07-18 00:40:00,
2013-07-17 19:45:00,88.8,73.1,30.11,South,180,0.0,0.0,60,0.00,,,0.00,Wunderground v.1.15,2013-07-18 00:45:00,
2013-07-17 19:50:00,88.6,72.9,30.11,South,180,0.0,0.0,60,0.00,,,0.00,Wunderground v.1.15,2013-07-18 00:50:00,
2013-07-17 19:55:00,88.4,72.7,30.11,South,180,0.0,0.0,60,0.00,,,0.00,Wunderground v.1.15,2013-07-18 00:55:00,
2013-07-17 20:00:00,88.2,73.0,30.11,South,180,0.0,0.0,61,0.00,,,0.00,Wunderground v.1.15,2013-07-18 01:00:00,
2013-07-17 20:05:00,87.9,73.3,30.11,South,179,0.0,0.0,62,0.00,,,0.00,Wunderground v.1.15,2013-07-18 01:05:00,
2013-07-17 20:10:00,87.7,73.1,30.11,South,171,0.0,0.0,62,0.00,,,0.00,Wunderground v.1.15,2013-07-18 01:10:00,
2013-07-17 20:15:00,87.4,72.8,30.11,South,171,0.0,0.0,62,0.00,,,0.00,Wunderground v.1.15,2013-07-18 01:15:00,
2013-07-17 20:20:00,87.2,73.1,30.11,South,171,0.0,0.0,63,0.00,,,0.00,Wunderground v.1.15,2013-07-18 01:20:00,
2013-07-17 20:25:00,87.0,72.9,30.11,South,175,0.0,0.0,63,0.00,,,0.00,Wunderground v.1.15,2013-07-18 01:25:00,
2013-07-17 20:35:00,86.6,73.0,30.10,South,174,0.0,0.0,64,0.00,,,0.00,Wunderground v.1.15,2013-07-18 01:35:00,
2013-07-17 20:40:00,86.3,72.7,30.11,South,174,0.0,0.0,64,0.00,,,0.00,Wunderground v.1.15,2013-07-18 01:40:00,
2013-07-17 20:45:00,85.9,72.8,30.11,SSE,162,0.0,0.0,65,0.00,,,0.00,Wunderground v.1.15,2013-07-18 01:45:00,
2013-07-17 20:50:00,85.6,73.4,30.11,SW,224,0.0,0.0,67,0.00,,,0.00,Wunderground v.1.15,2013-07-18 01:50:00,
2013-07-17 20:55:00,85.4,73.2,30.11,SSE,168,0.0,0.0,67,0.00,,,0.00,Wunderground v.1.15,2013-07-18 01:55:00,
2013-07-17 21:00:00,85.1,73.3,30.11,SSW,192,1.0,1.0,68,0.00,,,0.00,Wunderground v.1.15,2013-07-18 02:00:00,
2013-07-17 21:05:00,84.7,73.0,30.11,SSW,200,1.0,1.0,68,0.00,,,0.00,Wunderground v.1.15,2013-07-18 02:05:00,
2013-07-17 21:10:00,84.4,73.1,30.11,SSW,205,1.0,1.0,69,0.00,,,0.00,Wunderground v.1.15,2013-07-18 02:10:00,
2013-07-17 21:15:00,84.1,72.8,30.11,SSW,205,0.0,1.0,69,0.00,,,0.00,Wunderground v.1.15,2013-07-18 02:15:00,
2013-07-17 21:25:00,83.6,72.3,30.11,SSW,202,0.0,0.0,69,0.00,,,0.00,Wunderground v.1.15,2013-07-18 02:25:00,
2013-07-17 21:30:00,83.4,72.2,30.11,SSW,198,1.0,1.0,69,0.00,,,0.00,Wunderground v.1.15,2013-07-18 02:30:00,
2013-07-17 21:35:00,83.2,72.4,30.11,SSW,199,0.0,1.0,70,0.00,,,0.00,Wunderground v.1.15,2013-07-18 02:35:00,
2013-07-17 21:40:00,83.0,72.2,30.11,SSW,199,0.0,0.0,70,0.00,,,0.00,Wunderground v.1.15,2013-07-18 02:40:00,
2013-07-17 21:45:00,82.8,72.0,30.12,SSW,198,0.0,0.0,70,0.00,,,0.00,Wunderground v.1.15,2013-07-18 02:45:00,
2013-07-17 21:55:00,82.4,72.0,30.12,SSW,194,0.0,0.0,71,0.00,,,0.00,Wunderground v.1.15,2013-07-18 02:55:00,
2013-07-17 22:00:00,82.2,71.9,30.11,SSW,194,0.0,0.0,71,0.00,,,0.00,Wunderground v.1.15,2013-07-18 03:00:00,
2013-07-17 22:05:00,82.1,72.2,30.11,SSW,194,0.0,0.0,72,0.00,,,0.00,Wunderground v.1.15,2013-07-18 03:05:00,
2013-07-17 22:10:00,81.8,71.9,30.12,SSW,194,0.0,0.0,72,0.00,,,0.00,Wunderground v.1.15,2013-07-18 03:10:00,
2013-07-17 22:20:00,81.4,71.9,30.12,SSW,194,0.0,0.0,73,0.00,,,0.00,Wunderground v.1.15,2013-07-18 03:20:00,
2013-07-17 22:25:00,81.2,71.7,30.12,SSW,194,0.0,0.0,73,0.00,,,0.00,Wunderground v.1.15,2013-07-18 03:25:00,
2013-07-17 22:30:00,81.0,71.5,30.11,SSW,194,0.0,0.0,73,0.00,,,0.00,Wunderground v.1.15,2013-07-18 03:30:00,
2013-07-17 22:35:00,80.9,71.4,30.11,SSW,194,0.0,0.0,73,0.00,,,0.00,Wunderground v.1.15,2013-07-18 03:35:00,
2013-07-17 22:40:00,80.7,71.6,30.12,SSW,194,0.0,0.0,74,0.00,,,0.00,Wunderground v.1.15,2013-07-18 03:40:00,
2013-07-17 22:45:00,80.5,71.4,30.12,SSW,194,0.0,0.0,74,0.00,,,0.00,Wunderground v.1.15,2013-07-18 03:45:00,
2013-07-17 22:50:00,80.4,71.3,30.12,SSW,194,0.0,0.0,74,0.00,,,0.00,Wunderground v.1.15,2013-07-18 03:50:00,
2013-07-17 22:55:00,80.2,71.6,30.12,SSW,194,0.0,0.0,75,0.00,,,0.00,Wunderground v.1.15,2013-07-18 03:55:00,
2013-07-17 23:00:00,80.0,71.4,30.12,South,183,0.0,0.0,75,0.00,,,0.00,Wunderground v.1.15,2013-07-18 04:00:00,
2013-07-17 23:05:00,79.9,71.3,30.12,South,186,0.0,0.0,75,0.00,,,0.00,Wunderground v.1.15,2013-07-18 04:05:00,
2013-07-17 23:10:00,80.0,71.4,30.12,SSW,202,0.0,0.0,75,0.00,,,0.00,Wunderground v.1.15,2013-07-18 04:10:00,
2013-07-17 23:15:00,80.0,71.4,30.12,SSW,202,0.0,0.0,75,0.00,,,0.00,Wunderground v.1.15,2013-07-18 04:15:00,
2013-07-17 23:20:00,79.9,71.3,30.12,SSW,202,0.0,0.0,75,0.00,,,0.00,Wunderground v.1.15,2013-07-18 04:20:00,
2013-07-17 23:25:00,79.8,71.2,30.12,SSW,211,0.0,0.0,75,0.00,,,0.00,Wunderground v.1.15,2013-07-18 04:25:00,
2013-07-17 23:30:00,79.7,71.5,30.12,SSW,211,0.0,0.0,76,0.00,,,0.00,Wunderground v.1.15,2013-07-18 04:30:00,
2013-07-17 23:35:00,79.5,71.3,30.12,SSW,211,0.0,0.0,76,0.00,,,0.00,Wunderground v.1.15,2013-07-18 04:35:00,
2013-07-17 23:40:00,79.3,71.1,30.12,SSW,211,0.0,0.0,76,0.00,,,0.00,Wunderground v.1.15,2013-07-18 04:40:00,
2013-07-17 23:45:00,79.2,71.0,30.11,SSW,202,0.0,0.0,76,0.00,,,0.00,Wunderground v.1.15,2013-07-18 04:45:00,
2013-07-17 23:55:00,79.0,71.2,30.11,SSW,198,0.0,0.0,77,0.00,,,0.00,Wunderground v.1.15,2013-07-18 04:55:00,